Hourly Weather Czyste

Today, 17 April, Saturday

Time Temperature Precipitation Wind Pressure Humidity
00:00 +3°C° 0.1 mm 4 mps 760 mmHg 86%
01:00 +3°C° 0.1 mm 4 mps 759 mmHg 89%
02:00 +3°C° 0 mm 4 mps 759 mmHg 90%
03:00 +3°C° 0 mm 3 mps 759 mmHg 92%
04:00 +3°C° 0 mm 3 mps 759 mmHg 93%
05:00 +3°C° 0 mm 3 mps 759 mmHg 93%
06:00 +3°C° 0 mm 3 mps 759 mmHg 92%
07:00 +4°C° 0 mm 3 mps 760 mmHg 92%
08:00 +4°C° 0 mm 3 mps 760 mmHg 90%
09:00 +5°C° 0 mm 3 mps 760 mmHg 89%
10:00 +7°C° 0 mm 3 mps 760 mmHg 88%
11:00 +8°C° 0 mm 3 mps 760 mmHg 84%
12:00 +8°C° 0 mm 4 mps 760 mmHg 81%
13:00 +10°C° 0 mm 4 mps 759 mmHg 78%
14:00 +10°C° 0 mm 4 mps 759 mmHg 77%
15:00 +9°C° 0 mm 5 mps 759 mmHg 76%
16:00 +10°C° 0 mm 5 mps 759 mmHg 75%
17:00 +8°C° 0.2 mm 5 mps 759 mmHg 82%
18:00 +7°C° 0.2 mm 4 mps 759 mmHg 88%
19:00 +6°C° 0.2 mm 4 mps 759 mmHg 94%
20:00 +5°C° 0 mm 3 mps 759 mmHg 95%
21:00 +5°C° 0 mm 3 mps 759 mmHg 95%
22:00 +5°C° 0 mm 3 mps 759 mmHg 95%
23:00 +6°C° 0 mm 2 mps 759 mmHg 95%

Tomorrow, 18 April, Sunday

Time Temperature Precipitation Wind Pressure Humidity
00:00 +6°C° 0 mm 2 mps 759 mmHg 95%
01:00 +6°C° 0 mm 2 mps 759 mmHg 95%
02:00 +6°C° 0 mm 2 mps 759 mmHg 95%
03:00 +6°C° 0 mm 2 mps 759 mmHg 96%
04:00 +6°C° 0 mm 2 mps 759 mmHg 96%
05:00 +7°C° 0 mm 3 mps 759 mmHg 93%
06:00 +7°C° 0 mm 3 mps 759 mmHg 91%
07:00 +8°C° 0 mm 3 mps 759 mmHg 88%
08:00 +9°C° 0.1 mm 3 mps 759 mmHg 83%
09:00 +11°C° 0.1 mm 4 mps 759 mmHg 77%
10:00 +12°C° 0.1 mm 4 mps 759 mmHg 71%
11:00 +13°C° 0.6 mm 4 mps 759 mmHg 70%
12:00 +13°C° 0.6 mm 5 mps 759 mmHg 69%
13:00 +13°C° 0.6 mm 5 mps 758 mmHg 68%
14:00 +13°C° 0.5 mm 5 mps 758 mmHg 70%
15:00 +13°C° 0.5 mm 4 mps 758 mmHg 71%
16:00 +13°C° 0.5 mm 4 mps 758 mmHg 72%
17:00 +12°C° 0.4 mm 4 mps 758 mmHg 77%
18:00 +11°C° 0.4 mm 4 mps 758 mmHg 83%
19:00 +10°C° 0.4 mm 4 mps 758 mmHg 88%
20:00 +9°C° 0 mm 3 mps 758 mmHg 91%
21:00 +8°C° 0 mm 3 mps 758 mmHg 93%
22:00 +7°C° 0 mm 2 mps 759 mmHg 96%
23:00 +8°C° 0.3 mm 2 mps 758 mmHg 96%

Day after tomorrow, 19 April, Monday

Time Temperature Precipitation Wind Pressure Humidity
00:00 +8°C° 0.3 mm 2 mps 758 mmHg 96%
01:00 +8°C° 0.3 mm 2 mps 758 mmHg 97%
02:00 +8°C° 0.1 mm 2 mps 758 mmHg 97%
03:00 +8°C° 0.1 mm 2 mps 758 mmHg 97%
04:00 +8°C° 0.1 mm 2 mps 758 mmHg 97%
05:00 +8°C° 0.1 mm 3 mps 758 mmHg 95%
06:00 +9°C° 0.1 mm 3 mps 758 mmHg 94%
07:00 +9°C° 0.1 mm 3 mps 758 mmHg 92%
08:00 +10°C° 0.1 mm 3 mps 758 mmHg 88%
09:00 +11°C° 0.1 mm 3 mps 758 mmHg 84%
10:00 +11°C° 0.1 mm 4 mps 758 mmHg 79%
11:00 +12°C° 0.1 mm 4 mps 758 mmHg 72%
12:00 +13°C° 0.1 mm 4 mps 758 mmHg 64%
13:00 +14°C° 0.1 mm 4 mps 757 mmHg 56%
14:00 +14°C° 0 mm 4 mps 757 mmHg 56%
15:00 +14°C° 0 mm 3 mps 757 mmHg 56%
16:00 +14°C° 0 mm 3 mps 757 mmHg 56%
17:00 +13°C° 0 mm 3 mps 757 mmHg 61%
18:00 +12°C° 0 mm 3 mps 757 mmHg 65%
19:00 +11°C° 0 mm 3 mps 757 mmHg 69%
20:00 +10°C° 0 mm 3 mps 757 mmHg 71%
21:00 +10°C° 0 mm 3 mps 757 mmHg 73%
22:00 +9°C° 0 mm 3 mps 757 mmHg 75%
23:00 +9°C° 0 mm 2 mps 756 mmHg 76%

20 April, Tuesday

Time Temperature Precipitation Wind Pressure Humidity
00:00 +8°C° 0 mm 2 mps 756 mmHg 78%
01:00 +8°C° 0 mm 2 mps 756 mmHg 80%
02:00 +7°C° 0 mm 2 mps 756 mmHg 82%
03:00 +7°C° 0 mm 2 mps 756 mmHg 84%
04:00 +8°C° 0 mm 1 mps 756 mmHg 86%
05:00 +7°C° 0 mm 2 mps 755 mmHg 85%
06:00 +8°C° 0 mm 2 mps 755 mmHg 83%
07:00 +9°C° 0 mm 2 mps 755 mmHg 81%
08:00 +10°C° 0.2 mm 2 mps 755 mmHg 76%
09:00 +10°C° 0.2 mm 2 mps 755 mmHg 71%
10:00 +11°C° 0.2 mm 3 mps 755 mmHg 66%
11:00 +12°C° 0.1 mm 3 mps 754 mmHg 64%
12:00 +12°C° 0.1 mm 3 mps 754 mmHg 61%
13:00 +12°C° 0.1 mm 3 mps 754 mmHg 59%
14:00 +12°C° 0.1 mm 3 mps 754 mmHg 60%
15:00 +12°C° 0.1 mm 3 mps 753 mmHg 61%
16:00 +12°C° 0.1 mm 3 mps 753 mmHg 62%
17:00 +10°C° 0 mm 2 mps 753 mmHg 66%
18:00 +9°C° 0 mm 2 mps 753 mmHg 71%
19:00 +8°C° 0 mm 2 mps 753 mmHg 75%
20:00 +7°C° 0 mm 2 mps 753 mmHg 80%
21:00 +6°C° 0 mm 2 mps 753 mmHg 85%
22:00 +5°C° 0 mm 2 mps 753 mmHg 90%
23:00 +6°C° 0 mm 1 mps 752 mmHg 90%

21 April, Wednesday

Time Temperature Precipitation Wind Pressure Humidity
00:00 +6°C° 0 mm 1 mps 752 mmHg 90%
01:00 +5°C° 0 mm 1 mps 752 mmHg 90%
02:00 +5°C° 0 mm 1 mps 752 mmHg 90%
03:00 +5°C° 0 mm 1 mps 752 mmHg 90%
04:00 +4°C° 0 mm 1 mps 751 mmHg 90%
05:00 +6°C° 0 mm 1 mps 751 mmHg 86%
06:00 +7°C° 0 mm 1 mps 751 mmHg 82%
07:00 +8°C° 0 mm 1 mps 751 mmHg 77%
08:00 +8°C° 0 mm 0 mps 751 mmHg 71%
09:00 +10°C° 0 mm 0 mps 751 mmHg 65%
10:00 +12°C° 0 mm 0 mps 751 mmHg 59%
11:00 +13°C° 0.1 mm 1 mps 751 mmHg 56%
12:00 +14°C° 0.1 mm 1 mps 750 mmHg 54%
13:00 +14°C° 0.1 mm 1 mps 750 mmHg 51%
14:00 +14°C° 0.1 mm 1 mps 750 mmHg 52%
15:00 +15°C° 0.1 mm 1 mps 750 mmHg 52%
16:00 +15°C° 0.1 mm 1 mps 749 mmHg 52%
17:00 +14°C° 0 mm 1 mps 749 mmHg 57%
18:00 +12°C° 0 mm 1 mps 749 mmHg 63%
19:00 +10°C° 0 mm 2 mps 749 mmHg 68%
20:00 +10°C° 0 mm 2 mps 749 mmHg 69%
21:00 +9°C° 0 mm 2 mps 749 mmHg 70%
22:00 +9°C° 0 mm 3 mps 749 mmHg 71%
23:00 +8°C° 0 mm 3 mps 749 mmHg 72%

22 April, Thursday

Time Temperature Precipitation Wind Pressure Humidity
00:00 +8°C° 0 mm 3 mps 749 mmHg 73%
01:00 +8°C° 0 mm 3 mps 749 mmHg 74%
02:00 +8°C° 0 mm 2 mps 749 mmHg 75%
03:00 +8°C° 0 mm 2 mps 749 mmHg 77%
04:00 +8°C° 0 mm 2 mps 749 mmHg 78%
05:00 +8°C° 0 mm 2 mps 749 mmHg 78%
06:00 +9°C° 0 mm 2 mps 749 mmHg 78%
07:00 +9°C° 0 mm 2 mps 749 mmHg 79%
08:00 +9°C° 0.1 mm 3 mps 750 mmHg 81%
09:00 +9°C° 0.1 mm 3 mps 750 mmHg 83%
10:00 +8°C° 0.1 mm 4 mps 751 mmHg 85%
11:00 +7°C° 0.4 mm 4 mps 751 mmHg 87%
12:00 +5°C° 0.4 mm 5 mps 752 mmHg 90%
13:00 +2°C° 0.4 mm 5 mps 753 mmHg 92%
14:00 +4°C° 0.3 mm 4 mps 753 mmHg 88%
15:00 +4°C° 0.3 mm 4 mps 754 mmHg 83%
16:00 +5°C° 0.3 mm 3 mps 754 mmHg 79%
17:00 +6°C° 0 mm 2 mps 754 mmHg 79%
18:00 +6°C° 0 mm 2 mps 754 mmHg 79%
19:00 +7°C° 0 mm 1 mps 755 mmHg 79%
20:00 +6°C° 0 mm 1 mps 755 mmHg 81%
21:00 +5°C° 0 mm 2 mps 755 mmHg 84%
22:00 +4°C° 0 mm 2 mps 755 mmHg 86%
23:00 +4°C° 0 mm 2 mps 755 mmHg 86%
Show more